{"data":{"norad_id":66797,"intl_designator":"2025-278G","name":"STARLINK-36099","alt_names":[],"object_type":"PAYLOAD","status":"ACTIVE","operator":null,"country":"US","launch_date":"2025-12-01","launch_site_code":"AFETR","launch_vehicle":null,"mission":null,"orbit_class":"UNKNOWN","rcs_meters":null,"size_class":null,"mass_kg":null,"dimensions":null,"purposes":["comms"],"wikipedia_slug":null,"has_3d_model":false,"image_url":null,"decayed_at":null,"tle_current":{"epoch":"2026-05-25T02:11:07.983168Z","epoch_age_seconds":60557,"freshness":"FRESH","line1":"1 66797U 25278G   26145.09106462  .00016809  00000+0  61867-3 0  9999","line2":"2 66797  43.0032  42.9005 0001273 271.7346  88.3359 15.27595304 26894","mean_motion":15.27595304,"eccentricity":0.0001273,"inclination_deg":43.0032,"raan_deg":42.9005,"arg_perigee_deg":271.7346,"mean_anomaly_deg":88.3359,"bstar":0.00061867,"rev_number":2689,"period_min":94.265804315408,"perigee_km":482.12984758418,"apogee_km":483.87669389711,"semimajor_km":6861.1402707406,"source":"CELESTRAK","updated_at":"2026-05-25T13:38:21.327195Z"}}}